Regional Weather Roundup
Issued by NWS San Angelo, TX

Home | Current Version | Previous Version | Text Only | Print | Product List | Glossary On
Versions: 1 2 3 4 5 6 7 8 9 10 11 12 13 14 15 16 17 18 19 20 21 22 23 24 25 26 27 28 29 30 31 32 33 34 35 36 37 38 39 40 41 42 43 44 45 46 47 48 49 50
000
ASUS44 KSJT 020702
RWRSJT
WEST CENTRAL TEXAS REGIONAL WEATHER ROUNDUP
NATIONAL WEATHER SERVICE SAN ANGELO TX
200 AM CDT WED SEP 02 2015

NOTE: "FAIR" INDICATES FEW OR NO CLOUDS BELOW 12,000 FEET WITH NO
SIGNIFICANT WEATHER AND/OR OBSTRUCTIONS TO VISIBILITY.

TXZ049-054-064>066-071>073-076>078-098-099-113-114-127-128-139-140-
154-155-168>170-020800
...LOCATIONS ACROSS WEST CENTRAL TEXAS...

CITY           SKY/WX    TMP DP  RH WIND       PRES   REMARKS
SAN ANGELO     CLEAR     78  62  57 S10       30.04R
ABILENE        CLEAR     76  63  64 SE13      30.05S
DYESS AFB      CLEAR     77  64  64 S9        30.03
JUNCTION       CLEAR     75  67  76 S3        30.07S
SWEETWATER     NOT AVBL
BROWNWOOD      NOT AVBL
COLEMAN        SUNNY     76  65  69 SE8       30.07R
SONORA         NOT AVBL
OZONA          FAIR      75  59  57 S12G17    30.09S
BRADY          NOT AVBL
$$

TEXAS PANHANDLE/OKLAHOMA PANHANDLE

CITY           SKY/WX    TMP DP  RH WIND       PRES   REMARKS
AMARILLO       PTCLDY    71  55  56 S13       30.10F
BORGER         MOCLDY    74  56  53 S10       30.04F
CANADIAN       PTCLDY    76  60  56 S14       30.02R
DALHART        LGT RAIN  73  57  57 S14       30.09S
DUMAS          PTSUNNY   71  57  63 S7        30.07S
GUYMON         NOT AVBL
HEREFORD       NOT AVBL
PAMPA          NOT AVBL
PERRYTON       NOT AVBL
$$

SOUTHERN PANHANDLE/SOUTH PLAINS/ROLLING PLAINS

CITY           SKY/WX    TMP DP  RH WIND       PRES   REMARKS
LUBBOCK        CLEAR     73  54  51 S9        30.10R
SNYDER         NOT AVBL
CHILDRESS      CLEAR     75  58  55 S8        30.02S
SEMINOLE       SUNNY     68  52  56 SE5       30.11R
$$

PERMIAN BASIN

CITY           SKY/WX    TMP DP  RH WIND       PRES   REMARKS
MIDLAND        CLEAR     73  53  49 S6        30.07R
ODESSA         CLEAR     78  51  38 S10       30.08S
WINK           CLEAR     73  53  49 SE7       30.05S
$$

FAR WEST/SOUTHWEST MOUNTAINS/TRANS PECOS

CITY           SKY/WX    TMP DP  RH WIND       PRES   REMARKS
ALPINE         SUNNY     68  53  57 CALM      30.22S
DRYDEN           N/A     76  56  49 NW5       30.03S
EL PASO        MOCLDY    81  42  25 E12       30.06R
FORT STOCKTON  CLEAR     74  54  49 S8        30.07S
GUADALUPE PASS MOCLDY    72  50  45 NE26      30.21R
MARFA          PTCLDY    63  50  63 NE3       30.20S
PECOS          NOT AVBL
$$

DALLAS/FORT WORTH METROPLEX

CITY           SKY/WX    TMP DP  RH WIND       PRES   REMARKS
DFW AIRPORT    CLEAR     79  67  66 S14       30.03S
FTW MEACHAM    CLEAR     79  66  64 S12       30.04R
DAL-EXECUTIVE  CLEAR     77  68  73 S7        30.05R
GRAND PRAIRIE  CLEAR     78  68  71 S6        30.06R
ADDISON        CLEAR     79  70  74 S8        30.07R
MESQUITE       SUNNY     73  68  84 S3        30.05S
LANCASTER      SUNNY     75  65  71 S5        30.06S
$$

NORTH CENTRAL TEXAS

CITY           SKY/WX    TMP DP  RH WIND       PRES   REMARKS
SHRMAN/DENISON SUNNY     77  70  78 SE12      30.05S
GAINESVILLE    NOT AVBL
BRIDGEPORT     SUNNY     76  67  71 S7        30.06R
DENTON         CLEAR     77  67  71 S8        30.04R
WAXAHACHIE     SUNNY     74  68  80 S6        30.07S
GRANBURY       NOT AVBL
$$

WESTERN NORTH TEXAS

CITY           SKY/WX    TMP DP  RH WIND       PRES   REMARKS
WICHITA FALLS  CLEAR     76  65  68 S9        30.01R
VERNON         SUNNY     78  57  49 S9        30.01F
BRECKENRIDGE   NOT AVBL
COMANCHE       CLEAR     74  66  75 S7        30.07R
$$

CENTRAL AND SOUTH CENTRAL TEXAS

CITY           SKY/WX    TMP DP  RH WIND       PRES   REMARKS
AUSTIN/BERGSTM PTCLDY    69  66  90 CALM      30.06S
WACO           CLEAR     76  69  79 S14       30.05S
HILLSBORO      NOT AVBL
TEMPLE         CLEAR     72  64  78 SE7       30.06S
KILLEEN-GRAY   CLEAR     72  68  85 S7        30.06S
FORT HOOD      CLEAR     73  68  85 SE8       30.05S
GEORGETOWN     CLEAR     73  66  78 S3        30.07S
LAGO VISTA     FAIR      74  66  75 S7        30.09S
SAN MARCOS     CLEAR     72  66  83 CALM      30.08S
NEW BRAUNFELS  CLEAR     73  68  84 CALM      30.05S
RANDOLPH AFB   MOCLDY    73  70  89 CALM      30.06S
SAN ANTONIO    MOCLDY    76  69  79 SE7       30.07S
STINSON        PTCLDY    75  69  81 E6        30.04S
PLEASANTON     NOT AVBL
LA GRANGE      NOT AVBL
GIDDINGS       NOT AVBL
$$

EAST TEXAS

CITY           SKY/WX    TMP DP  RH WIND       PRES   REMARKS
PARIS          CLEAR     73  63  68 S7        30.06S
CLARKSVILLE    NOT AVBL
TYLER          CLEAR     73  68  84 S3        30.06S
LONGVIEW       CLEAR     73  70  90 S3        30.06R
PALESTINE      SUNNY     72  69  92 CALM      30.08R
NACOGDOCHES    MOCLDY    70  68  94 CALM      30.06R
$$

TEXAS HILL COUNTRY AND EDWARDS PLATEAU

CITY           SKY/WX    TMP DP  RH WIND       PRES   REMARKS
LLANO          NOT AVBL
HORSESHOE BAY  FAIR      74  67  78 S3        30.07S
KERRVILLE      CLEAR     72  67  85 SE6       30.09S
FREDERICKSBRG  NOT AVBL
ROCKSPRINGS    SUNNY     72  66  83 SE13      30.12S
HONDO          CLEAR     74  68  81 E6        30.07S
UVALDE         NOT AVBL
DEL RIO        CLEAR     80  67  64 E12G20    30.01R
$$

SOUTHEAST TEXAS

CITY           SKY/WX    TMP DP  RH WIND       PRES   REMARKS
COLLEGE STN    CLEAR     73  69  87 CALM      30.05S
CALDWELL       NOT AVBL
CROCKETT       SUNNY     68  66  94 CALM      30.09S
BRENHAM        NOT AVBL
HUNTSVILLE     PTCLDY    71  69  93 CALM      30.06S
CONROE         PTCLDY    71  68  90 CALM      30.06S
HOUSTON BUSH   MOCLDY    74  72  93 NE5       30.04F
HOUSTON HOBBY  CLOUDY    76  73  91 E3        30.03F
PERLAND        MOCLDY    76  73  91 CALM      30.04F
WHARTON        NOT AVBL
$$

THE UPPER TEXAS COAST

CITY           SKY/WX    TMP DP  RH WIND       PRES   REMARKS
ORANGE         LGT RAIN N/A N/A N/A CALM      30.06F
PORT ARTHUR    CLOUDY    76  74  93 MISG      30.04F
GALVESTON      CLOUDY    79  76  90 NE10      30.03F
ANGLETON       HVY RAIN  72  70  93 S13       30.04R FOG
BAY CITY       CLOUDY    75  75  99 CALM      30.02F
$$

TEXAS COASTAL BEND, RIO GRANDE PLAINS DEEP SOUTH TEXAS

CITY           SKY/WX    TMP DP  RH WIND       PRES   REMARKS
VICTORIA       PTCLDY    73  73 100 NE3       30.03S
BEEVILLE       FAIR      73  73 100 NE3       30.02F
ROCKPORT       PTCLDY    81  73  76 SE3       30.00F
PORT ARANSAS   MOSUNNY   81  74  77 SE8       30.00S
PORT LAVACA    MOSUNNY   75  74  94 E9        30.02S
CORPUS CHRISTI PTCLDY    76  73  91 SE5       30.00F
KINGSVILLE NAS PTCLDY    74  74 100 CALM      30.01S
COTULLA        PTCLDY    78  71  79 SE8       30.02S
LAREDO         CLEAR     79  74  84 SE10      30.02F
BROWNSVILLE    CLEAR     78  75  90 E3        29.99S
PORT ISABEL    PTCLDY    81  77  88 SE6       29.99S
HEBBRONVILLE   NOT AVBL
MCALLEN        PTCLDY    80  75  84 E6        30.00S
WESLACO        NOT AVBL
FALFURRIAS     SUNNY     75  73  93 CALM      30.00F
EDINBURG       SUNNY     77  73  89 CALM      30.00S
$$



USA.gov is the U.S. government's official web portal to all federal, state and local government web resources and services.